RYR07D LEBL-EGCC

Flight info

Callsign RYR07D
Flight time 2h 0m
Altitude 34000
Route NATPI DCT EVNAM DCT TUPAR UN861 ANG DCT AKIKI UN867 AVANT UM184 HEMEL T420 ELVOS
Aircraft B38M/M-SDE1FGHILORVWXY/HB1

Departure

Time 2026-05-04 17:01
Airport Josep Tarradellas Barcelona-El Prat Airport (LEBL)

Arrival

Time 2026-05-04 19:01
Airport Manchester Airport (EGCC)
Time Latitude Longitude Altitude Speed Heading
2026-05-04 16:43 41.28838 2.08107 21 ft 0 kts 66°
2026-05-04 16:52 41.28844 2.08125 21 ft 6 kts 66°
2026-05-04 16:52 41.28849 2.08163 22 ft 3 kts 112°
2026-05-04 16:53 41.28717 2.08265 19 ft 9 kts 116°
2026-05-04 16:53 41.28839 2.08663 19 ft 23 kts 66°
2026-05-04 16:54 41.28906 2.08860 21 ft 24 kts 65°
2026-05-04 16:55 41.29215 2.09760 20 ft 29 kts 64°
2026-05-04 16:55 41.29262 2.10063 19 ft 5 kts 111°
2026-05-04 16:56 41.29261 2.10064 19 ft 0 kts 111°
2026-05-04 17:00 41.29219 2.10324 18 ft 4 kts 179°
2026-05-04 17:00 41.28872 2.09312 22 ft 136 kts 245°
2026-05-04 17:01 41.27919 2.06537 1192 ft 183 kts 239°
2026-05-04 17:01 41.26227 2.03758 2867 ft 208 kts 212°
2026-05-04 17:02 41.23397 2.02968 4489 ft 218 kts 168°
2026-05-04 17:02 41.20430 2.03644 4673 ft 216 kts 180°
2026-05-04 17:03 41.18997 2.03265 4728 ft 214 kts 210°
2026-05-04 17:03 41.17874 2.01957 4832 ft 218 kts 230°
2026-05-04 17:03 41.15925 1.98792 5060 ft 223 kts 230°
2026-05-04 17:04 41.13982 1.95552 5687 ft 224 kts 232°
2026-05-04 17:04 41.12767 1.91641 7492 ft 236 kts 250°
2026-05-04 17:05 41.11773 1.87462 9503 ft 239 kts 251°
2026-05-04 17:05 41.11947 1.82814 10613 ft 284 kts 287°
2026-05-04 17:06 41.13518 1.77602 11566 ft 323 kts 295°
2026-05-04 17:06 41.15008 1.75295 12394 ft 337 kts 317°
2026-05-04 17:07 41.19151 1.72030 13950 ft 352 kts 325°
2026-05-04 17:07 41.19847 1.71506 14189 ft 353 kts 325°
2026-05-04 17:07 41.23580 1.69130 15474 ft 362 kts 331°
2026-05-04 17:07 41.25893 1.67751 16232 ft 365 kts 330°
2026-05-04 17:08 41.28218 1.66349 17008 ft 369 kts 330°
2026-05-04 17:08 41.32939 1.63479 18423 ft 376 kts 330°
2026-05-04 17:08 41.35344 1.62013 18790 ft 383 kts 330°
2026-05-04 17:09 41.37772 1.60534 18884 ft 382 kts 330°
2026-05-04 17:09 41.40159 1.59076 18916 ft 382 kts 330°
2026-05-04 17:09 41.42584 1.57595 19054 ft 384 kts 330°
2026-05-04 17:10 41.47452 1.54614 20235 ft 388 kts 329°
2026-05-04 17:10 41.54067 1.50593 21714 ft 398 kts 334°
2026-05-04 17:11 41.56800 1.49750 22292 ft 408 kts 346°
2026-05-04 17:11 41.59617 1.49114 22765 ft 412 kts 345°
2026-05-04 17:11 41.65320 1.47824 23759 ft 419 kts 345°
2026-05-04 17:12 41.68170 1.47188 24205 ft 421 kts 345°
2026-05-04 17:12 41.73987 1.45891 25036 ft 426 kts 345°
2026-05-04 17:13 41.82874 1.43905 26263 ft 435 kts 347°
2026-05-04 17:14 41.91879 1.41887 27468 ft 443 kts 347°
2026-05-04 17:14 41.94927 1.41202 27850 ft 445 kts 347°
2026-05-04 17:14 42.01080 1.39819 28560 ft 452 kts 347°
2026-05-04 17:15 42.04198 1.39116 28895 ft 455 kts 347°
2026-05-04 17:15 42.10484 1.37699 29608 ft 460 kts 347°
2026-05-04 17:16 42.16837 1.36262 30239 ft 465 kts 347°
2026-05-04 17:16 42.26517 1.34069 31136 ft 474 kts 347°
2026-05-04 17:17 42.29743 1.33336 31412 ft 476 kts 346°
2026-05-04 17:17 42.39625 1.31087 32163 ft 483 kts 346°
2026-05-04 17:18 42.42958 1.30328 32414 ft 486 kts 346°
2026-05-04 17:18 42.49641 1.28801 33026 ft 488 kts 346°
2026-05-04 17:19 42.56335 1.27269 33683 ft 487 kts 346°
2026-05-04 17:19 42.63038 1.25732 33982 ft 489 kts 346°
2026-05-04 17:20 42.69711 1.24198 33937 ft 488 kts 346°
2026-05-04 17:20 42.79864 1.22696 33966 ft 491 kts 351°
2026-05-04 17:21 42.93413 1.20820 33948 ft 490 kts 350°
2026-05-04 17:22 43.00223 1.19869 33963 ft 491 kts 350°
2026-05-04 17:23 43.13813 1.17963 33971 ft 493 kts 351°
2026-05-04 17:24 43.24070 1.16519 33985 ft 493 kts 351°
2026-05-04 17:25 43.37734 1.14587 33984 ft 493 kts 351°
2026-05-04 17:26 43.51308 1.12660 33958 ft 490 kts 351°
2026-05-04 17:26 43.61393 1.10667 33916 ft 480 kts 334°
2026-05-04 17:27 43.67507 1.07100 33917 ft 480 kts 333°
2026-05-04 17:28 43.79784 0.99786 33942 ft 479 kts 332°
2026-05-04 17:29 43.98142 0.88731 33939 ft 480 kts 332°
2026-05-04 17:31 44.13439 0.79462 33943 ft 480 kts 332°
2026-05-04 17:32 44.28696 0.70164 33941 ft 478 kts 332°
2026-05-04 17:33 44.40842 0.62725 33933 ft 478 kts 332°
2026-05-04 17:34 44.53049 0.55214 33932 ft 479 kts 332°
2026-05-04 17:35 44.68300 0.45782 33918 ft 480 kts 332°
2026-05-04 17:36 44.74413 0.41985 33911 ft 480 kts 332°
2026-05-04 17:36 44.80485 0.38206 33934 ft 480 kts 332°
2026-05-04 17:37 44.86600 0.34391 33911 ft 479 kts 332°
2026-05-04 17:37 44.92706 0.30573 33922 ft 480 kts 332°
2026-05-04 17:38 44.98778 0.26767 33925 ft 479 kts 332°
2026-05-04 17:38 45.04899 0.22921 33940 ft 480 kts 333°
2026-05-04 17:39 45.14058 0.17150 33935 ft 480 kts 332°
2026-05-04 17:39 45.20120 0.13320 33949 ft 480 kts 333°
2026-05-04 17:40 45.26230 0.09449 33937 ft 481 kts 333°
2026-05-04 17:40 45.32342 0.05568 33936 ft 481 kts 333°
2026-05-04 17:41 45.38447 0.01682 33937 ft 480 kts 333°
2026-05-04 17:41 45.44555 -0.02213 33969 ft 480 kts 333°
2026-05-04 17:42 45.50601 -0.06080 33941 ft 478 kts 333°
2026-05-04 17:42 45.56677 -0.09975 33941 ft 479 kts 333°
2026-05-04 17:43 45.62763 -0.13885 33944 ft 480 kts 333°
2026-05-04 17:43 45.68867 -0.17817 33944 ft 481 kts 333°
2026-05-04 17:44 45.74968 -0.21756 33935 ft 481 kts 333°
2026-05-04 17:44 45.81028 -0.25678 33928 ft 481 kts 333°
2026-05-04 17:45 45.87125 -0.29633 33940 ft 481 kts 333°
2026-05-04 17:45 45.93231 -0.33604 33943 ft 481 kts 333°
2026-05-04 17:46 45.99339 -0.37586 33946 ft 482 kts 333°
2026-05-04 17:46 46.05412 -0.41554 33938 ft 482 kts 333°
2026-05-04 17:47 46.11530 -0.45562 33937 ft 482 kts 333°
2026-05-04 17:47 46.17644 -0.49573 33960 ft 483 kts 333°
2026-05-04 17:48 46.23773 -0.53606 33949 ft 484 kts 333°
2026-05-04 17:48 46.29889 -0.57640 33948 ft 484 kts 333°
2026-05-04 17:49 46.35988 -0.61672 33954 ft 484 kts 333°
2026-05-04 17:49 46.42145 -0.65626 33953 ft 486 kts 341°
2026-05-04 17:50 46.45461 -0.66578 33960 ft 487 kts 354°
2026-05-04 17:50 46.48840 -0.67154 33936 ft 490 kts 352°
2026-05-04 17:50 46.55609 -0.68386 33953 ft 490 kts 352°
2026-05-04 17:51 46.62334 -0.69532 33949 ft 489 kts 352°
2026-05-04 17:51 46.69094 -0.70672 33949 ft 489 kts 352°
2026-05-04 17:52 46.75860 -0.71816 33951 ft 489 kts 352°
2026-05-04 17:52 46.82625 -0.72962 33950 ft 489 kts 352°
2026-05-04 17:53 46.89386 -0.74111 33963 ft 489 kts 352°
2026-05-04 17:53 46.96152 -0.75263 33949 ft 489 kts 352°
2026-05-04 17:54 47.02864 -0.76408 33966 ft 487 kts 352°
2026-05-04 17:54 47.09608 -0.77563 33961 ft 488 kts 352°
2026-05-04 17:55 47.16363 -0.78722 33945 ft 488 kts 352°
2026-05-04 17:55 47.23062 -0.79870 33948 ft 486 kts 352°
2026-05-04 17:56 47.29775 -0.81032 33953 ft 486 kts 352°
2026-05-04 17:56 47.36494 -0.82194 33947 ft 486 kts 352°
2026-05-04 17:57 47.42076 -0.83161 33969 ft 485 kts 353°
2026-05-04 17:57 47.48760 -0.84322 33932 ft 482 kts 353°
2026-05-04 17:58 47.55403 -0.85709 33942 ft 482 kts 348°
2026-05-04 17:58 47.62014 -0.87524 33931 ft 482 kts 349°
2026-05-04 17:59 47.68616 -0.89278 33943 ft 481 kts 349°
2026-05-04 18:00 47.78477 -0.91893 33943 ft 482 kts 349°
2026-05-04 18:00 47.85072 -0.93647 33956 ft 480 kts 349°
2026-05-04 18:01 47.91656 -0.95403 33955 ft 480 kts 349°
2026-05-04 18:01 47.98238 -0.97163 33954 ft 480 kts 349°
2026-05-04 18:02 48.08066 -0.99799 33957 ft 480 kts 349°
2026-05-04 18:02 48.14659 -1.01574 33957 ft 480 kts 349°
2026-05-04 18:03 48.21243 -1.03350 33962 ft 480 kts 349°
2026-05-04 18:03 48.27806 -1.05125 33962 ft 479 kts 349°
2026-05-04 18:04 48.34318 -1.06892 33966 ft 479 kts 349°
2026-05-04 18:05 48.44162 -1.09571 33974 ft 479 kts 349°
2026-05-04 18:05 48.50737 -1.11366 33975 ft 480 kts 349°
2026-05-04 18:06 48.60593 -1.14065 33976 ft 479 kts 349°
2026-05-04 18:06 48.67129 -1.15861 33983 ft 480 kts 349°
2026-05-04 18:07 48.73714 -1.17676 33990 ft 481 kts 349°
2026-05-04 18:07 48.80296 -1.19495 33982 ft 480 kts 349°
2026-05-04 18:08 48.86852 -1.21311 33986 ft 481 kts 349°
2026-05-04 18:08 48.93433 -1.23139 33982 ft 481 kts 349°
2026-05-04 18:09 49.06601 -1.26811 33981 ft 480 kts 349°
2026-05-04 18:10 49.13123 -1.28637 33984 ft 478 kts 349°
2026-05-04 18:10 49.19674 -1.30476 33994 ft 478 kts 349°
2026-05-04 18:11 49.26220 -1.32319 33989 ft 478 kts 349°
2026-05-04 18:11 49.32716 -1.34152 34008 ft 475 kts 349°
2026-05-04 18:12 49.39207 -1.35990 33992 ft 474 kts 349°
2026-05-04 18:12 49.45695 -1.37830 33997 ft 474 kts 349°
2026-05-04 18:13 49.52188 -1.39677 33985 ft 474 kts 349°
2026-05-04 18:14 49.61907 -1.41311 34008 ft 468 kts
2026-05-04 18:14 49.68409 -1.40814 34006 ft 470 kts
2026-05-04 18:15 49.81429 -1.39698 33994 ft 465 kts
2026-05-04 18:16 49.87893 -1.39124 34005 ft 465 kts
2026-05-04 18:16 49.94355 -1.38548 33985 ft 464 kts
2026-05-04 18:17 50.03914 -1.37059 34004 ft 461 kts
2026-05-04 18:18 50.13496 -1.34694 33988 ft 467 kts
2026-05-04 18:18 50.19908 -1.33096 33997 ft 466 kts
2026-05-04 18:19 50.29425 -1.30716 33991 ft 462 kts
2026-05-04 18:19 50.35790 -1.29118 34002 ft 463 kts
2026-05-04 18:20 50.42149 -1.27519 33985 ft 462 kts 10°
2026-05-04 18:20 50.48475 -1.25863 33980 ft 459 kts 15°
2026-05-04 18:21 50.51431 -1.24046 33985 ft 454 kts 32°
2026-05-04 18:21 50.54128 -1.21477 33978 ft 456 kts 33°
2026-05-04 18:21 50.59507 -1.16280 34004 ft 456 kts 34°
2026-05-04 18:22 50.64877 -1.10963 33986 ft 456 kts 34°
2026-05-04 18:22 50.70237 -1.05619 33987 ft 455 kts 34°
2026-05-04 18:23 50.75595 -1.00259 34004 ft 455 kts 34°
2026-05-04 18:23 50.80950 -0.94908 33993 ft 456 kts 32°
2026-05-04 18:24 50.83818 -0.92922 33988 ft 456 kts 17°
2026-05-04 18:24 50.86856 -0.91384 33975 ft 460 kts 19°
2026-05-04 18:24 50.92929 -0.88199 34006 ft 460 kts 19°
2026-05-04 18:25 50.99016 -0.85042 34007 ft 460 kts 19°
2026-05-04 18:25 51.05103 -0.81879 34013 ft 460 kts 19°
2026-05-04 18:26 51.11185 -0.78710 34018 ft 460 kts 19°
2026-05-04 18:26 51.17224 -0.75556 34022 ft 459 kts 19°
2026-05-04 18:27 51.23303 -0.72371 34014 ft 460 kts 19°
2026-05-04 18:27 51.29382 -0.69178 34015 ft 459 kts 19°
2026-05-04 18:28 51.35456 -0.65979 34018 ft 460 kts 19°
2026-05-04 18:28 51.41547 -0.62761 34018 ft 461 kts 19°
2026-05-04 18:29 51.47607 -0.59551 34012 ft 460 kts 19°
2026-05-04 18:29 51.53707 -0.56310 34028 ft 460 kts 19°
2026-05-04 18:30 51.62829 -0.51447 34019 ft 460 kts 19°
2026-05-04 18:31 51.68867 -0.48218 34046 ft 460 kts 19°
2026-05-04 18:31 51.74945 -0.44965 34039 ft 460 kts 17°
2026-05-04 18:31 51.78081 -0.43981 33996 ft 458 kts
2026-05-04 18:32 51.81249 -0.44356 34024 ft 456 kts 346°
2026-05-04 18:32 51.84226 -0.46023 34022 ft 451 kts 331°
2026-05-04 18:32 51.86982 -0.48437 34021 ft 450 kts 329°
2026-05-04 18:33 51.92347 -0.53445 33917 ft 440 kts 327°
2026-05-04 18:33 51.94948 -0.55947 33555 ft 433 kts 327°
2026-05-04 18:33 51.97526 -0.58454 33022 ft 430 kts 327°
2026-05-04 18:33 52.00083 -0.60952 32480 ft 428 kts 327°
2026-05-04 18:34 52.02629 -0.63444 31986 ft 424 kts 327°
2026-05-04 18:34 52.05145 -0.65911 31546 ft 421 kts 327°
2026-05-04 18:34 52.07645 -0.68366 31089 ft 417 kts 327°
2026-05-04 18:34 52.10125 -0.70804 30621 ft 415 kts 327°
2026-05-04 18:35 52.12585 -0.73226 30154 ft 412 kts 327°
2026-05-04 18:35 52.15026 -0.75633 29639 ft 409 kts 327°
2026-05-04 18:35 52.17452 -0.78028 29169 ft 405 kts 326°
2026-05-04 18:35 52.19828 -0.80376 28742 ft 401 kts 326°
2026-05-04 18:36 52.22205 -0.82728 28312 ft 397 kts 326°
2026-05-04 18:36 52.24555 -0.85056 27885 ft 393 kts 326°
2026-05-04 18:36 52.26887 -0.87369 27479 ft 390 kts 326°
2026-05-04 18:36 52.29199 -0.89666 27069 ft 386 kts 326°
2026-05-04 18:37 52.31484 -0.91939 26667 ft 383 kts 326°
2026-05-04 18:37 52.33754 -0.94199 26264 ft 380 kts 325°
2026-05-04 18:37 52.35979 -0.96418 25881 ft 377 kts 325°
2026-05-04 18:37 52.38213 -0.98647 25495 ft 375 kts 325°
2026-05-04 18:38 52.40434 -1.00867 25110 ft 372 kts 324°
2026-05-04 18:38 52.42641 -1.03075 24708 ft 370 kts 324°
2026-05-04 18:38 52.44838 -1.05276 24333 ft 368 kts 324°
2026-05-04 18:38 52.47018 -1.07462 23959 ft 366 kts 324°
2026-05-04 18:39 52.49163 -1.09616 23589 ft 364 kts 323°
2026-05-04 18:39 52.51321 -1.11784 23150 ft 362 kts 324°
2026-05-04 18:39 52.53461 -1.13936 22778 ft 359 kts 324°
2026-05-04 18:39 52.55583 -1.16074 22400 ft 356 kts 324°
2026-05-04 18:40 52.57681 -1.18190 22040 ft 352 kts 324°
2026-05-04 18:40 52.59762 -1.20291 21679 ft 349 kts 324°
2026-05-04 18:40 52.61828 -1.22380 21324 ft 346 kts 324°
2026-05-04 18:40 52.63871 -1.24447 20976 ft 343 kts 324°
2026-05-04 18:41 52.65878 -1.26479 20625 ft 340 kts 325°
2026-05-04 18:41 52.67893 -1.28521 20292 ft 338 kts 325°
2026-05-04 18:41 52.69886 -1.30546 19961 ft 335 kts 325°
2026-05-04 18:41 52.71882 -1.32578 19527 ft 337 kts 325°
2026-05-04 18:42 52.73868 -1.34601 19231 ft 335 kts 326°
2026-05-04 18:42 52.75846 -1.36617 18856 ft 334 kts 326°
2026-05-04 18:42 52.77826 -1.38638 18475 ft 334 kts 326°
2026-05-04 18:42 52.79774 -1.40627 18064 ft 333 kts 326°
2026-05-04 18:43 52.81742 -1.42641 17648 ft 332 kts 326°
2026-05-04 18:43 52.83709 -1.44654 17241 ft 331 kts 326°
2026-05-04 18:43 52.85660 -1.46653 16867 ft 329 kts 326°
2026-05-04 18:43 52.87605 -1.48648 16485 ft 327 kts 326°
2026-05-04 18:44 52.89537 -1.50632 16108 ft 326 kts 326°
2026-05-04 18:44 52.90189 -1.51302 15980 ft 325 kts 326°
2026-05-04 18:44 52.93370 -1.54574 15357 ft 323 kts 327°
2026-05-04 18:44 52.95275 -1.56537 14987 ft 322 kts 327°
2026-05-04 18:45 52.96540 -1.57840 14739 ft 321 kts 327°
2026-05-04 18:45 52.99051 -1.60433 14247 ft 320 kts 327°
2026-05-04 18:45 53.00940 -1.62385 13885 ft 319 kts 327°
2026-05-04 18:45 53.02825 -1.64334 13467 ft 319 kts 327°
2026-05-04 18:46 53.04703 -1.66283 13070 ft 317 kts 325°
2026-05-04 18:46 53.05833 -1.67807 12785 ft 315 kts 311°
2026-05-04 18:46 53.07246 -1.70568 12430 ft 312 kts 309°
2026-05-04 18:46 53.08654 -1.73297 12086 ft 309 kts 309°
2026-05-04 18:47 53.10041 -1.75984 11723 ft 301 kts 309°
2026-05-04 18:47 53.11381 -1.78583 11369 ft 291 kts 309°
2026-05-04 18:47 53.12685 -1.81115 11024 ft 287 kts 309°
2026-05-04 18:47 53.13982 -1.83636 10710 ft 287 kts 310°
2026-05-04 18:48 53.15279 -1.86158 10383 ft 286 kts 310°
2026-05-04 18:48 53.16566 -1.88664 10062 ft 284 kts 310°
2026-05-04 18:48 53.17846 -1.91157 9709 ft 282 kts 310°
2026-05-04 18:48 53.19119 -1.93642 9352 ft 281 kts 310°
2026-05-04 18:49 53.20357 -1.96060 9018 ft 273 kts 310°
2026-05-04 18:49 53.21569 -1.98428 8706 ft 263 kts 310°
2026-05-04 18:49 53.22737 -2.00714 8401 ft 254 kts 310°
2026-05-04 18:49 53.23878 -2.02951 8153 ft 251 kts 310°
2026-05-04 18:50 53.25063 -2.05086 7942 ft 251 kts 321°
2026-05-04 18:50 53.26632 -2.06267 7713 ft 251 kts 349°
2026-05-04 18:50 53.28366 -2.06004 7500 ft 255 kts 18°
2026-05-04 18:50 53.29832 -2.04363 7266 ft 258 kts 45°
2026-05-04 18:51 53.30969 -2.02048 7068 ft 254 kts 51°
2026-05-04 18:51 53.32025 -1.99746 6844 ft 244 kts 51°
2026-05-04 18:51 53.33035 -1.97536 6619 ft 234 kts 51°
2026-05-04 18:51 53.33998 -1.95416 6396 ft 224 kts 51°
2026-05-04 18:52 53.34902 -1.93426 6228 ft 207 kts 51°
2026-05-04 18:52 53.35747 -1.91552 5956 ft 197 kts 51°
2026-05-04 18:52 53.36561 -1.89740 5602 ft 193 kts 51°
2026-05-04 18:52 53.37350 -1.87983 5303 ft 186 kts 51°
2026-05-04 18:53 53.38109 -1.86297 5028 ft 177 kts 51°
2026-05-04 18:53 53.38829 -1.84688 4737 ft 170 kts 51°
2026-05-04 18:53 53.39563 -1.83126 4334 ft 170 kts 41°
2026-05-04 18:53 53.40600 -1.82385 3948 ft 162 kts 356°
2026-05-04 18:54 53.41600 -1.83039 3573 ft 153 kts 316°
2026-05-04 18:54 53.42327 -1.84358 3706 ft 158 kts 308°
2026-05-04 18:54 53.42983 -1.85871 3701 ft 162 kts 305°
2026-05-04 18:54 53.43631 -1.87420 3636 ft 162 kts 305°
2026-05-04 18:55 53.44269 -1.88944 3570 ft 162 kts 305°
2026-05-04 18:55 53.45557 -1.92032 3478 ft 161 kts 305°
2026-05-04 18:55 53.46205 -1.93602 3509 ft 169 kts 303°
2026-05-04 18:56 53.46840 -1.95336 3547 ft 178 kts 301°
2026-05-04 18:56 53.47480 -1.97138 3523 ft 181 kts 301°
2026-05-04 18:56 53.47944 -1.99086 3463 ft 182 kts 275°
2026-05-04 18:56 53.47721 -2.01157 3478 ft 183 kts 250°
2026-05-04 18:57 53.47122 -2.03061 3529 ft 186 kts 238°
2026-05-04 18:57 53.46332 -2.04797 3426 ft 189 kts 233°
2026-05-04 18:57 53.45501 -2.06491 3200 ft 187 kts 232°
2026-05-04 18:57 53.44677 -2.08187 2958 ft 187 kts 234°
2026-05-04 18:58 53.43878 -2.09845 2754 ft 174 kts 234°
2026-05-04 18:58 53.43174 -2.11306 2539 ft 154 kts 235°
2026-05-04 18:58 53.42515 -2.12677 2324 ft 148 kts 236°
2026-05-04 18:58 53.41874 -2.14015 2108 ft 147 kts 236°
2026-05-04 18:59 53.41233 -2.15348 1926 ft 147 kts 236°
2026-05-04 18:59 53.40599 -2.16663 1723 ft 146 kts 236°
2026-05-04 18:59 53.39964 -2.17981 1516 ft 144 kts 236°
2026-05-04 18:59 53.39333 -2.19294 1320 ft 145 kts 236°
2026-05-04 19:00 53.38699 -2.20610 1121 ft 145 kts 236°
2026-05-04 19:00 53.38063 -2.21902 918 ft 142 kts 235°
2026-05-04 19:00 53.37453 -2.23158 718 ft 136 kts 233°
2026-05-04 19:00 53.36869 -2.24398 552 ft 137 kts 232°
2026-05-04 19:01 53.36266 -2.25642 356 ft 136 kts 233°
2026-05-04 19:01 53.35710 -2.26805 271 ft 110 kts 232°
2026-05-04 19:01 53.35379 -2.27489 260 ft 47 kts 232°
2026-05-04 19:01 53.35267 -2.27818 251 ft 22 kts 250°
2026-05-04 19:02 53.35246 -2.27975 245 ft 18 kts 260°
2026-05-04 19:02 53.35233 -2.28123 239 ft 0 kts 265°
2026-05-04 19:03 53.35233 -2.28128 239 ft 2 kts 265°
2026-05-04 19:03 53.35244 -2.28185 238 ft 6 kts 316°
2026-05-04 19:03 53.35274 -2.28194 238 ft 5 kts
2026-05-04 19:03 53.35326 -2.28130 242 ft 12 kts 44°
2026-05-04 19:04 53.35386 -2.28031 244 ft 13 kts 44°
2026-05-04 19:04 53.35447 -2.27928 247 ft 11 kts 56°
2026-05-04 19:04 53.35491 -2.27855 249 ft 8 kts 34°
2026-05-04 19:04 53.35539 -2.27785 250 ft 12 kts 43°
2026-05-04 19:05 53.35632 -2.27635 250 ft 22 kts 45°
2026-05-04 19:05 53.35722 -2.27460 250 ft 8 kts 51°
2026-05-04 19:05 53.35758 -2.27385 250 ft 8 kts 53°
2026-05-04 19:05 53.35769 -2.27302 250 ft 8 kts 102°
2026-05-04 19:06 53.35758 -2.27207 253 ft 5 kts 82°
2026-05-04 19:06 53.35767 -2.27163 254 ft 5 kts 65°
2026-05-04 19:06 53.35806 -2.27061 255 ft 16 kts 56°
2026-05-04 19:06 53.35867 -2.26908 256 ft 15 kts 53°
2026-05-04 19:07 53.35925 -2.26771 257 ft 14 kts 57°
2026-05-04 19:07 53.35996 -2.26621 256 ft 17 kts 45°
2026-05-04 19:07 53.36104 -2.26641 250 ft 11 kts 328°
2026-05-04 19:07 53.36139 -2.26680 250 ft 1 kts 327°
2026-05-04 19:08 53.36143 -2.26684 250 ft 0 kts 327°